User: anonymous   Login
Location: Unspecified
(0.0000°N, 0.0000°E)
Time: 19:44:53
(UTC+01:00)
Language:

Sapphire - Orbit

View from above orbital plane
View from above orbital plane
View from above satellite
View from above satellite

Ground track
Ground track

The orbit data is extracted from the following two-line orbital elements,

1 26932U 01043D   14327.20130997  .00000064  00000-0  56730-4 0  7654
2 26932 067.0572 349.5057 0008658 282.4543 077.5589 14.30064101686381
Epoch (UTC): 23 November 2014 04:49:53
Eccentricity: 0.0008658
inclination: 67.0572°
perigee height: 785 km
apogee height: 798 km
right ascension of ascending node: 349.5057°
argument of perigee: 282.4543°
revolutions per day: 14.30064101
mean anomaly at epoch: 77.5589°
orbit number at epoch: 68638

The dashed part of the orbit path shows where the satellite is in the earth's shadow,  

DLR